Tracking 29892 objects as of 21-Nov-2024
HD Live streaming from Space Station
objects crossing your sky now

LEGION 2

Track LEGION 2 now!
10-day predictions


NORAD ID: 59626
Int'l Code: 2024-081B
Perigee: 517.4 km
Apogee: 524.9 km
Inclination: 97.6 °
Period: 94.9 minutes
Semi major axis: 6892 km
RCS: Unknown
Launch date: May 2, 2024
Source: United States (US)
Launch site: AIR FORCE WESTERN TEST RANGE (AFWTR)
Your satellite tracking list
Your tracking list is empty




NASA's NSSDC Master Catalog

Two Line Element Set (TLE):
1 59626U 24081B   24325.91592189  .00009088  00000-0  45922-3 0  9993
2 59626  97.5602  36.8412 0005460 258.7502 101.3118 15.17286599 30648
Source of the keplerian elements: AFSPC